Broomfield, CO

8:49 PM MDT on April 26, 2018 (GMT -0600)
Jeffco

Weather History for KBJC - November, 2011

Change the Weather History Date:

Thursday, November 10, 2011

  Actual Average Record
Temperature  
Mean Temperature 46 °F -  
Max Temperature 62 °F 50 °F 73 °F (1989)
Min Temperature 30 °F 30 °F 10 °F (1985)
Degree Days  
Heating Degree Days 19    
Moisture  
Dew Point -6 °F    
Average Humidity 18    
Maximum Humidity 41    
Minimum Humidity 4    
Precipitation  
Precipitation 0.00 in - - ()
Sea Level Pressure  
Sea Level Pressure 30.20 in    
Wind  
Wind Speed 6 mph (West)    
Max Wind Speed 36 mph    
Max Gust Speed 43 mph    
Visibility 10 miles    
Events      
Averages and records for this station are not official NWS values.
T = Trace of Precipitation, MM = Missing Value Source: NWS Daily Summary

Daily Weather History Graph

Daily Weather History Graph

Search for Another Location

Airport or City:

Astronomy

Nov. 10, 2011 Rise Set
Actual Time 6:39 AM MST 4:48 PM MST
Civil Twilight 6:10 AM MST 5:17 PM MST
Nautical Twilight 5:38 AM MST 5:49 PM MST
Astronomical Twilight 5:06 AM MST 6:21 PM MST
Moon 4:38 PM MST (11/10) 6:34 AM MST (11/10)
Length of Visible Light 11h 06m
Length of Day
10h 09m
Full, 100% of the Moon is Illuminated
Nov 10
Full
Nov 10
Full
Nov 18
Last Quarter
Nov 24
New
Dec 2
First Quarter

Hourly Weather History & Observations

Time (MST) Temp. Windchill Dew Point Humidity Pressure Visibility Wind Dir Wind Speed Gust Speed Precip Events Conditions
12:07 AM 35.6 °F 30.7 °F 5.0 °F 28% 30.35 in 10.0 mi NW 5.8 mph - N/A   Clear
12:27 AM 33.8 °F 30.8 °F 8.6 °F 35% 30.35 in 10.0 mi East 3.5 mph - N/A   Clear
12:47 AM 32.0 °F - 10.4 °F 41% 30.34 in 10.0 mi Calm Calm - N/A   Clear
1:07 AM 32.0 °F - 8.6 °F 38% 30.33 in 10.0 mi Calm Calm - N/A   Clear
1:27 AM 32.0 °F - 10.4 °F 41% 30.33 in 10.0 mi Calm Calm - N/A   Clear
1:46 AM 33.8 °F - 5.0 °F 30% 30.33 in 10.0 mi Calm Calm - N/A   Clear
2:06 AM 33.8 °F 30.8 °F 3.2 °F 28% 30.33 in 10.0 mi SW 3.5 mph - N/A   Clear
2:27 AM 33.8 °F 27.7 °F 1.4 °F 25% 30.32 in 10.0 mi WSW 6.9 mph - N/A   Clear
2:47 AM 33.8 °F - 1.4 °F 25% 30.31 in 10.0 mi Calm Calm - N/A   Clear
3:07 AM 35.6 °F 31.7 °F 1.4 °F 24% 30.30 in 10.0 mi SE 4.6 mph - N/A   Clear
3:27 AM 30.2 °F - 8.6 °F 40% 30.30 in 10.0 mi Calm Calm - N/A   Clear
3:47 AM 32.0 °F - 5.0 °F 32% 30.29 in 10.0 mi Calm Calm - N/A   Clear
4:07 AM 30.2 °F - 5.0 °F 34% 30.29 in 10.0 mi Calm Calm - N/A   Clear
4:26 AM 30.2 °F - 5.0 °F 34% 30.28 in 10.0 mi Calm Calm - N/A   Clear
4:47 AM 32.0 °F - 5.0 °F 32% 30.28 in 10.0 mi Calm Calm - N/A   Clear
5:50 AM 35.6 °F - -2.2 °F 20% 30.28 in 20.0 mi Calm Calm - N/A   Clear
6:50 AM 39.2 °F 35.0 °F -5.8 °F 15% 30.26 in 80.0 mi WSW 5.8 mph - N/A   Clear
7:46 AM 35.6 °F - 8.6 °F 33% 30.27 in 60.0 mi Calm Calm - N/A   Partly Cloudy
8:54 AM 44.6 °F - 1.4 °F 17% 30.26 in 60.0 mi Calm Calm - N/A   Clear
9:46 AM 48.2 °F - 8.6 °F 20% 30.24 in 60.0 mi Calm Calm - N/A   Clear
10:53 AM 55.4 °F - -4.0 °F 9% 30.23 in 60.0 mi Variable 4.6 mph - N/A   Partly Cloudy
11:05 AM 59.0 °F - -14.8 °F 5% 30.22 in 60.0 mi West 18.4 mph 25.3 mph N/A   Partly Cloudy
11:52 AM 60.8 °F - -23.8 °F 4% 30.19 in 60.0 mi West 16.1 mph 23.0 mph N/A   Partly Cloudy
12:48 PM 62.6 °F - -22.0 °F 4% 30.15 in 60.0 mi West 23.0 mph 27.6 mph N/A   Partly Cloudy
1:52 PM 62.6 °F - -14.8 °F 4% 30.13 in 60.0 mi NNW 6.9 mph - N/A   Partly Cloudy
2:55 PM 60.8 °F - -23.8 °F 4% 30.11 in 60.0 mi WNW 4.6 mph - N/A   Partly Cloudy
3:49 PM 55.4 °F - -16.6 °F 5% 30.11 in 60.0 mi WNW 11.5 mph 25.3 mph N/A   Partly Cloudy
4:49 PM 53.6 °F - -14.8 °F 6% 30.08 in 60.0 mi West 11.5 mph 17.3 mph N/A   Scattered Clouds
5:49 PM 51.8 °F - -11.2 °F 7% 30.07 in 60.0 mi West 23.0 mph 32.2 mph N/A   Scattered Clouds
6:47 PM 53.6 °F - -14.8 °F 6% 30.07 in 40.0 mi WNW 9.2 mph - N/A   Partly Cloudy
7:50 PM 50.0 °F - -14.8 °F 6% 30.07 in 30.0 mi WSW 9.2 mph - N/A   Scattered Clouds
8:47 PM 53.6 °F - -20.2 °F 4% 30.04 in 30.0 mi WSW 31.1 mph 39.1 mph N/A   Scattered Clouds
9:47 PM 53.6 °F - -20.2 °F 4% 30.05 in 30.0 mi West 24.2 mph 29.9 mph N/A   Scattered Clouds
10:07 PM 51.8 °F - -22.0 °F 4% 30.04 in 10.0 mi West 35.7 mph 42.6 mph N/A   Clear
10:27 PM 51.8 °F - -16.6 °F 5% 30.05 in 10.0 mi WNW 20.7 mph 33.4 mph N/A   Clear
10:47 PM 51.8 °F - -18.4 °F 5% 30.06 in 10.0 mi NW 8.1 mph 25.3 mph N/A   Clear
11:07 PM 50.0 °F - -14.8 °F 6% 30.05 in 10.0 mi Calm Calm - N/A   Clear
11:27 PM 50.0 °F - -14.8 °F 6% 30.05 in 10.0 mi West 13.8 mph 21.9 mph N/A   Clear
11:47 PM 50.0 °F - -13.0 °F 7% 30.05 in 10.0 mi WSW 23.0 mph 26.5 mph N/A   Clear